{"data":{"norad_id":67048,"epoch":"2026-05-24T21:35:01.171104Z","epoch_age_seconds":86902,"freshness":"FRESH","line1":"1 67048U 25294U   26144.89931911  .00011771  00000+0  43641-3 0  9992","line2":"2 67048  43.0021 327.7620 0001872 274.0638  85.9999 15.27592850 26452","mean_motion":15.2759285,"eccentricity":0.0001872,"inclination_deg":43.0021,"raan_deg":327.762,"arg_perigee_deg":274.0638,"mean_anomaly_deg":85.9999,"bstar":0.00043641,"rev_number":2645,"period_min":94.265955748615,"perigee_km":481.72621195238,"apogee_km":484.29502562085,"semimajor_km":6861.1476187866,"source":"CELESTRAK","updated_at":"2026-05-25T13:38:21.440299Z"}}